User: anonymous   Login
Location: Unspecified
(29.9680°N, 0.0000°E)
Time: 11:46:42
(UTC+00:00)
Language:

SR - Orbit

View from above orbital plane
View from above orbital plane
View from above satellite
View from above satellite

Ground track
Ground track

The orbit data is extracted from the following two-line orbital elements,

1    46U 60007B   19166.77673356 -.00000094 +00000-0 +42798-5 0  9999
2    46 066.6908 319.9606 0204961 043.6995 318.0133 14.49230473085839
Epoch (UTC): 15 June 2019 18:38:29
Eccentricity: 0.0204961
inclination: 66.6908°
perigee height: 582 km
apogee height: 874 km
right ascension of ascending node: 319.9606°
argument of perigee: 43.6995°
revolutions per day: 14.49230473
mean anomaly at epoch: 318.0133°
orbit number at epoch: 8583

The dashed part of the orbit path shows where the satellite is in the earth's shadow,  

DLR